Wind_Gust
2 1 3 3 5 4 7 9 5 10 6 9 6 6 13 4 10 11 11 11 6 6 5 8 7 7 4 12 22 16 15 7 5 13 15 18 8 12 17 22 19 20 23 23 21 20 20 21 23 24 23 24 24 24 22 23 23 22 21 22 23 23 23 23 25 26 25 26 26 26 27 27 28 27 25 24 23 23 23 23 24 25 25 24 22 22 21 20 20 21 20 19 19 19 19 18 18
1 1 1 2 2 2 5 5 8 4 9 7 14 4 11 4 1 9 14 11 7 9 4 16 21 25 25 21 16 11 21 13 8 17 14 17 16 15 19 23 24 24 19 19 17 16 15 18 20 21 22 23 24 23 23 23 23 22 22 22 23 23 22 23 24 24 25 25 25 26 26 27 26 27 25 24 22 20 19 21 24 25 24 24 23 22 20 20 21 20 19 19 18 18 18 18 17
3 1 5 6 8 8 5 6 8 3 4 6 16 15 5 5 7 13 16 14 6 9 7 7 9 7 5 5 15 9 7 8 21 15 18 19 21 19 23 24 23 21 21 18 17 16 16 18 19 21 21 22 22 22 22 23 23 22 22 22 22 23 23 23 24 25 24 24 25 25 25 26 25 27 26 24 22 19 20 20 22 23 23 23 22 21 20 20 18 17 17 17 17 18 18 16 15
2 2 6 6 5 8 6 6 7 12 6 13 12 11 7 6 12 13 11 14 6 8 5 9 12 9 9 23 18 19 18 14 9 22 27 26 29 23 20 15 14 16 16 17 17 16 16 22 23 22 23 23 24 23 23 23 23 22 22 22 22 22 22 22 23 23 24 24 25 25 23 24 24 26 26 24 22 20 19 19 19 21 21 21 21 20 19 19 18 17 17 17 17 17 17 17 16
3 3 4 6 11 5 7 7 6 8 9 12 10 10 6 8 12 13 13 8 4 7 5 10 14 6 8 13 5 11 12 5 11 10 14 12 11 17 14 13 15 15 15 15 17 17 17 26 23 22 22 24 24 24 22 21 22 22 21 21 21 22 22 22 22 23 22 23 23 24 23 23 24 25 26 25 22 19 22 20 19 20 20 19 18 18 18 17 17 17 17 18 18 18 17 16 16
6 4 4 6 6 7 9 4 5 6 13 9 6 13 10 12 9 9 16 19 5 2 11 6 12 9 11 5 6 11 14 19 11 7 14 10 15 15 16 15 16 16 16 15 15 14 16 23 23 23 22 22 24 23 22 23 22 22 22 21 21 22 21 21 20 21 22 23 22 24 24 23 22 24 25 25 23 23 23 21 19 18 19 19 18 16 15 15 15 16 17 17 18 17 16 15 14
6 8 7 7 6 8 10 5 5 6 17 12 12 17 17 16 11 6 16 16 3 8 6 13 20 15 17 7 9 6 15 14 17 14 10 14 13 14 15 15 15 16 15 16 14 13 16 20 20 20 21 22 22 23 23 22 22 21 21 21 21 21 21 20 19 20 21 20 21 22 22 22 23 24 24 23 22 22 22 20 19 18 19 19 18 16 14 15 15 16 17 17 17 16 15 14 14
3 7 6 7 8 4 4 3 6 10 13 14 10 12 19 18 12 5 13 5 9 6 5 11 6 20 5 4 10 7 11 5 9 14 14 15 14 11 12 13 15 17 16 13 13 11 18 18 18 18 19 20 22 23 22 22 21 20 21 21 20 19 21 21 19 18 18 20 21 21 21 21 23 24 23 22 21 21 21 20 20 20 19 17 16 15 14 14 15 16 17 17 16 15 14 15 14
5 9 3 10 5 7 3 6 10 8 14 10 14 13 18 19 18 12 16 10 3 7 7 7 3 14 8 8 8 8 9 11 13 15 14 13 14 13 14 13 17 18 18 14 12 11 13 14 15 17 18 19 20 21 21 21 20 20 20 21 19 18 18 19 20 17 17 18 19 20 20 20 21 20 20 20 22 20 21 21 21 21 19 16 15 14 14 14 15 16 17 17 15 15 15 15 15
5 5 6 10 8 5 3 11 3 10 9 9 12 16 16 16 14 8 16 6 8 8 7 6 5 16 14 13 9 6 7 7 11 15 10 9 9 9 11 10 9 17 16 15 13 13 13 18 15 16 16 17 17 17 17 17 19 19 19 18 16 17 17 17 16 16 17 17 16 17 18 19 19 19 19 21 21 20 20 21 21 20 18 16 14 14 14 13 15 17 17 16 15 15 15 15 16
8 6 5 8 3 5 8 10 8 11 10 12 15 19 22 17 11 15 6 5 4 12 12 18 18 20 13 9 8 5 4 5 6 14 7 7 6 8 10 10 12 11 18 15 13 13 13 14 19 15 16 16 16 16 16 17 17 17 17 16 16 16 17 16 16 16 16 17 17 17 18 18 18 18 18 19 20 20 19 20 21 20 17 15 13 13 13 13 15 16 16 15 15 15 14 14 14
6 7 5 6 7 11 8 6 6 14 15 10 18 16 8 14 7 9 4 11 5 12 10 3 20 21 16 12 8 4 3 2 3 3 8 4 6 6 8 11 12 10 13 16 15 14 14 15 16 19 18 17 17 17 17 17 17 17 16 16 16 16 17 16 16 15 15 15 16 16 17 17 18 17 16 17 17 19 19 19 20 19 17 14 13 12 12 13 15 15 14 15 15 15 14 13 12
7 4 8 7 7 4 5 3 12 8 12 15 9 9 2 3 6 8 3 7 8 8 5 4 28 7 13 11 7 2 6 4 2 3 8 6 6 8 8 9 14 14 13 14 16 14 14 12 14 14 14 17 15 15 16 17 16 16 15 14 14 15 15 15 15 14 14 15 15 16 16 16 16 16 17 16 17 18 19 19 19 18 16 13 12 11 12 13 14 15 14 15 15 14 13 12 12
9 12 11 9 3 4 3 7 6 7 11 13 7 6 4 3 2 5 11 10 3 3 3 22 16 13 12 12 7 9 13 5 6 5 7 8 9 9 9 8 13 15 14 13 14 14 12 11 11 12 13 11 11 14 14 15 14 14 13 13 13 13 13 13 13 13 13 14 14 14 16 16 16 17 16 15 16 16 16 17 18 17 16 14 11 11 11 13 13 13 14 14 14 12 12 12 12
8 5 5 5 5 2 6 7 5 4 15 6 12 5 7 5 3 5 12 13 10 5 15 5 15 12 17 18 14 20 17 11 9 8 10 11 11 10 10 9 12 15 14 13 13 14 13 12 11 11 10 9 9 8 9 13 13 12 13 13 13 13 13 13 13 12 14 14 16 17 17 18 17 17 17 16 15 14 16 16 16 15 15 14 12 10 10 12 13 13 14 12 11 11 12 12 11
9 7 5 6 7 6 11 5 3 3 19 4 10 7 2 3 7 6 5 7 12 6 3 10 6 6 14 22 18 26 16 13 11 11 14 13 11 10 11 11 11 11 13 12 12 12 13 13 12 12 12 10 8 8 9 9 12 13 14 15 14 13 13 13 14 13 14 15 16 16 15 16 16 15 17 16 16 14 13 10 15 15 15 14 11 10 10 11 13 13 12 11 10 10 12 11 10
3 4 5 6 7 4 8 8 3 5 12 10 11 7 3 6 5 9 4 9 18 3 8 8 8 8 23 10 9 19 16 13 11 14 16 14 13 13 9 9 11 10 10 13 12 12 13 13 14 13 12 11 8 8 8 8 11 13 11 11 13 12 12 14 15 15 13 13 14 14 12 11 9 10 12 8 15 10 11 13 15 15 14 13 11 10 10 11 12 12 11 10 9 10 11 10 10
5 9 10 5 9 5 9 8 9 2 5 10 7 3 7 6 8 7 7 14 12 8 10 6 15 16 11 8 21 19 16 16 13 16 15 15 12 13 11 11 12 12 11 14 12 12 12 11 12 11 12 10 8 7 6 6 9 10 7 8 8 11 11 12 12 10 10 6 11 11 8 9 8 9 10 11 6 11 12 13 14 14 14 13 11 9 9 9 10 11 10 9 10 12 11 8 8
11 9 9 13 9 13 6 7 10 6 10 9 11 8 5 4 2 3 12 1 3 12 8 7 14 15 15 16 19 19 17 16 15 15 15 13 11 13 14 14 14 14 14 12 11 12 10 12 12 12 11 10 9 7 7 6 7 6 6 7 8 9 10 9 6 9 5 6 6 7 8 7 7 8 8 10 9 10 10 13 14 14 13 13 11 9 9 9 9 9 10 9 10 11 9 7 8
11 8 9 13 8 8 6 8 14 11 9 13 8 6 6 4 4 2 8 6 3 14 10 6 10 14 14 14 16 17 16 15 14 16 16 14 14 16 15 17 17 14 11 9 12 11 11 12 11 11 11 10 11 10 8 8 8 8 8 7 8 8 7 8 6 6 7 7 7 6 7 8 7 7 12 17 12 7 7 9 12 13 13 11 12 8 7 8 9 10 10 9 7 7 9 8 10
8 9 14 11 8 8 13 8 15 16 4 10 2 5 6 7 2 6 9 9 2 5 9 16 17 19 19 18 19 18 17 16 14 14 15 16 15 15 16 12 7 10 10 9 9 12 11 12 11 11 10 10 11 11 11 10 10 9 8 8 8 8 8 7 7 8 6 8 8 7 6 6 7 7 7 7 8 7 2 3 5 5 3 4 7 5 4 6 7 6 6 6 4 5 10 10 8
5 12 5 6 2 4 10 6 7 8 6 6 2 3 4 6 6 8 11 9 9 14 14 10 22 23 25 22 19 17 18 17 16 16 17 19 20 16 8 6 8 8 9 11 10 12 11 10 10 10 11 10 12 13 13 12 13 10 9 10 9 8 9 8 7 9 9 7 8 8 7 8 6 6 6 7 7 6 4 2 4 5 3 4 4 6 5 4 4 4 4 3 2 2 9 11 4
11 8 6 7 9 12 11 3 7 7 10 7 6 2 2 4 6 7 9 8 10 9 9 14 20 25 24 23 23 19 17 16 18 22 22 19 14 11 11 11 14 15 12 10 9 9 11 11 11 11 12 13 14 13 13 13 12 11 9 11 11 10 9 8 9 9 9 9 9 8 10 9 8 6 8 8 7 5 6 4 5 5 5 4 3 6 4 2 3 3 2 1 1 3 6 7 8
7 15 5 12 6 14 16 8 8 6 8 11 7 1 3 3 10 7 4 7 8 8 13 15 15 16 19 23 19 22 21 21 21 17 14 16 17 16 15 16 13 9 11 11 11 11 11 12 11 12 12 13 13 12 12 10 8 9 10 13 11 12 10 8 7 7 7 7 7 7 7 8 9 8 7 9 8 5 6 4 3 5 5 4 2 5 5 3 2 2 2 1 1 6 5 6 10
6 12 7 13 10 14 15 13 15 11 10 11 7 5 7 6 6 7 6 2 7 11 15 16 16 16 14 16 18 18 18 15 16 13 11 10 5 6 5 8 8 10 12 11 11 11 10 11 10 12 11 11 10 11 11 9 10 10 10 9 9 11 9 8 9 7 7 6 4 5 7 9 7 8 9 9 8 7 5 4 5 4 4 3 3 3 4 5 2 2 2 1 3 4 2 7 10
12 16 10 8 11 12 11 7 9 13 9 4 3 6 7 10 5 6 7 5 7 15 15 16 15 16 16 17 18 20 21 21 17 15 18 12 8 8 6 8 9 11 12 14 14 12 10 10 11 11 11 11 8 7 6 7 9 11 10 9 8 9 7 8 8 9 8 8 7 5 7 9 10 11 9 8 10 8 6 4 5 5 6 4 4 4 3 3 4 1 1 1 2 2 5 4 9
7 5 8 12 14 12 8 10 9 11 9 6 10 6 10 4 10 15 5 5 15 15 15 13 17 18 16 17 16 17 23 22 23 18 12 9 9 10 10 9 9 8 11 13 12 12 12 12 11 10 7 6 7 8 7 7 7 9 7 7 7 9 8 8 7 7 8 8 8 6 6 8 9 8 9 9 8 8 7 6 6 4 4 5 5 5 2 3 2 3 2 1 2 5 5 6 9
5 6 6 7 12 10 9 4 8 3 8 9 11 12 6 6 4 12 7 9 18 19 16 15 13 15 16 18 18 15 17 18 19 17 20 16 19 15 14 14 10 11 13 12 10 11 13 12 11 9 10 10 9 9 9 10 9 10 10 9 8 8 5 8 9 8 8 8 7 7 7 8 8 8 9 9 9 8 8 7 6 5 7 5 6 5 5 4 3 2 2 3 3 6 7 7 7
5 3 8 13 8 11 4 10 8 10 11 6 8 2 5 5 8 11 16 14 16 20 18 18 17 13 12 15 16 16 18 17 17 18 19 20 12 11 13 11 15 12 8 12 14 13 12 10 14 15 13 10 12 12 12 10 12 13 12 6 8 11 8 6 9 10 8 8 8 7 9 8 7 10 9 11 9 8 7 6 5 5 6 6 6 5 3 4 4 5 5 6 6 6 8 8 8
3 2 7 6 7 9 10 3 2 10 7 11 9 12 16 16 13 5 11 16 13 15 14 15 14 14 12 14 16 15 14 16 19 22 19 16 13 12 14 12 14 13 14 12 14 14 11 10 13 14 12 11 10 10 10 10 10 11 12 9 8 13 10 7 10 9 9 9 8 7 8 8 8 7 10 8 8 8 7 8 7 6 6 4 3 4 6 6 7 6 6 7 7 6 8 6 9
5 6 3 7 2 10 7 4 2 9 4 9 5 12 20 14 15 6 12 18 19 19 16 15 14 13 13 14 16 17 18 21 24 20 16 15 12 9 12 13 13 13 14 13 15 14 14 14 14 13 13 11 10 12 14 13 12 14 15 14 12 10 10 11 9 7 8 10 11 11 10 8 7 7 7 10 8 8 8 7 7 8 7 4 1 4 9 7 8 9 8 8 6 8 8 6 8
4 6 11 8 4 12 10 6 5 7 4 4 7 9 19 17 17 11 14 18 21 20 16 15 14 15 15 15 16 15 16 14 13 12 12 12 8 8 13 14 14 14 16 16 14 15 15 13 15 12 10 13 12 14 14 12 11 13 16 14 18 18 17 12 7 10 12 8 11 10 9 9 7 7 8 8 9 8 9 9 8 7 6 4 6 6 9 10 8 7 3 9 10 7 9 8 6
10 5 7 4 2 8 11 4 3 7 9 2 9 16 7 10 13 14 16 18 19 19 18 16 15 15 15 15 14 11 14 14 13 14 12 10 8 9 11 13 16 15 13 15 16 14 14 13 14 10 13 14 15 15 13 13 14 16 16 15 13 10 12 14 15 15 14 14 11 10 10 10 8 8 8 8 9 8 7 8 8 8 7 9 8 8 8 8 9 8 4 4 7 9 9 10 8
7 4 6 5 2 6 7 13 7 5 6 4 3 12 14 15 8 6 6 16 17 19 19 17 17 15 13 12 12 13 14 15 19 19 15 11 12 12 12 14 13 12 11 13 14 17 16 14 13 14 12 12 12 14 12 12 12 13 14 16 14 13 14 13 13 14 14 12 13 13 11 10 10 10 10 9 8 8 8 9 9 8 11 14 10 6 9 8 6 8 8 4 6 10 10 11 12
4 3 5 8 4 2 8 7 7 4 2 8 5 9 18 19 14 8 10 15 21 21 23 19 16 13 12 13 13 13 13 14 19 18 15 12 12 13 14 13 12 12 12 13 13 12 12 13 14 14 15 13 11 14 13 11 10 8 9 15 16 16 12 13 13 14 13 12 13 13 12 11 11 10 10 10 10 9 8 8 9 8 12 15 12 7 8 9 7 5 9 8 7 6 9 9 12
6 4 3 2 5 9 9 10 7 3 8 13 8 17 19 20 17 10 8 7 21 14 8 8 10 11 11 13 13 12 12 12 9 13 14 12 12 15 14 13 13 13 14 14 13 13 13 14 13 12 12 14 11 11 13 13 13 14 14 12 12 15 15 15 13 15 14 14 14 14 14 12 11 11 10 10 11 10 9 10 9 9 12 13 12 8 8 9 10 8 8 11 10 9 9 9 11
3 2 2 5 4 12 8 9 11 5 8 18 18 16 16 14 9 7 5 5 9 10 11 9 12 15 18 14 11 12 13 12 9 10 11 12 12 12 13 13 13 12 13 14 15 14 15 17 16 15 14 14 17 17 16 19 19 16 15 19 21 19 18 15 15 14 14 14 13 13 13 12 10 10 10 11 11 10 10 10 9 9 12 15 12 10 10 9 9 9 10 8 11 10 6 9 10
2 2 3 11 3 11 11 11 9 8 16 11 11 4 10 15 6 8 3 7 12 15 13 15 18 16 12 10 12 13 8 5 8 9 10 10 9 10 13 13 14 16 14 14 16 13 14 14 14 14 14 15 17 19 19 19 19 23 22 22 20 19 17 18 17 15 15 12 11 10 10 9 9 10 10 9 9 10 10 9 9 10 12 16 11 11 10 9 9 8 11 9 3 7 9 9 12
2 4 4 4 12 9 15 8 4 6 8 16 3 8 12 11 6 8 4 7 8 17 22 23 21 16 16 15 13 9 12 13 11 9 7 6 9 10 13 13 15 18 18 16 12 12 13 13 13 15 16 17 16 15 16 18 16 11 9 12 13 13 6 4 6 7 9 11 10 9 9 9 9 9 9 9 10 8 9 9 10 10 10 17 13 11 11 11 11 12 11 13 11 5 8 6 7
5 2 3 12 7 4 14 11 7 10 6 9 7 10 12 10 5 9 7 9 8 7 13 18 20 23 22 24 21 19 16 16 10 11 12 12 13 13 13 14 15 13 12 11 13 15 15 14 13 15 16 16 17 16 15 10 6 7 8 7 8 6 6 7 7 6 7 9 9 9 7 9 9 9 9 9 8 12 11 10 9 10 10 15 15 13 11 12 10 10 10 9 14 13 10 9 5
4 6 9 6 5 8 10 12 11 7 5 6 10 8 9 9 11 12 11 12 17 19 7 6 7 7 8 8 13 14 10 10 14 15 15 16 15 13 16 16 15 15 13 13 15 18 16 13 12 13 13 16 16 16 12 7 10 7 8 8 8 8 7 7 7 5 8 10 9 8 9 8 9 8 8 9 9 11 10 9 8 7 7 8 10 12 13 13 11 12 12 12 12 16 12 10 8
7 9 14 11 7 7 11 6 6 16 10 11 9 10 8 11 9 11 10 16 20 16 16 14 12 7 7 10 10 13 12 9 12 12 14 14 14 13 13 14 14 11 10 13 15 14 11 12 12 10 6 5 11 11 7 7 9 10 10 11 11 8 8 11 11 11 10 11 11 7 8 9 8 7 7 8 8 8 8 8 11 13 10 8 9 11 11 9 10 11 12 13 10 6 18 13 12
6 17 13 13 11 8 2 5 8 4 7 5 4 14 7 12 17 17 12 9 15 17 20 18 17 14 6 7 9 12 15 14 12 13 12 13 12 13 13 12 10 11 6 11 11 13 12 8 8 9 9 8 8 7 6 4 5 5 8 11 12 14 13 11 8 9 12 8 7 8 8 8 8 10 8 7 7 7 7 7 10 11 10 10 9 10 11 12 12 11 9 9 11 9 9 16 14
13 11 9 7 6 8 8 7 7 6 6 9 9 9 11 5 14 9 14 7 17 20 20 21 20 18 15 11 9 10 14 15 16 14 13 14 15 14 14 13 14 9 10 12 13 13 12 9 7 6 7 7 6 6 7 8 6 6 7 7 10 12 13 13 11 10 8 8 8 8 8 8 8 8 9 8 8 8 9 8 9 10 9 11 9 10 11 11 10 6 9 9 10 12 13 16 13
17 10 9 9 13 9 10 8 5 3 2 10 12 4 10 5 14 13 11 12 15 20 20 19 19 18 18 18 17 15 12 8 13 16 14 13 15 15 14 17 12 12 14 18 18 15 14 12 12 11 13 11 10 10 11 11 12 13 12 10 8 5 6 8 8 8 9 8 8 8 9 8 8 7 7 8 8 8 9 10 10 10 9 9 8 8 8 10 10 12 11 8 10 11 11 9 13
15 11 7 5 6 7 7 7 7 3 9 5 4 3 11 5 10 15 9 9 15 14 15 17 17 18 18 18 17 16 15 13 12 11 10 11 12 14 15 14 13 9 5 3 6 11 13 11 11 9 11 15 17 17 17 16 14 14 15 13 12 11 10 9 9 10 9 8 8 9 8 10 9 10 8 7 7 8 8 8 10 10 9 9 9 9 9 10 8 10 13 11 10 10 8 10 14
3 6 7 5 12 6 7 11 10 7 4 11 8 3 11 10 8 7 9 10 7 9 12 15 17 18 18 17 17 17 16 15 13 11 9 8 6 5 7 13 10 8 9 15 12 5 7 6 5 6 11 17 19 19 16 15 13 13 16 15 14 12 11 11 11 10 9 8 9 9 9 9 9 9 9 8 9 10 9 10 10 10 9 9 9 9 11 12 14 12 11 9 10 11 10 9 6
7 12 10 5 6 12 10 8 9 9 8 11 6 4 7 12 8 8 6 7 10 11 13 15 17 17 17 16 17 17 15 13 12 10 9 7 5 4 5 8 12 19 18 13 12 11 9 8 6 7 12 16 17 17 16 15 14 14 13 13 13 12 12 12 13 13 13 12 11 11 9 8 8 8 8 8 9 10 10 10 9 9 11 10 10 9 9 11 13 10 10 11 11 9 8 10 7
9 10 11 12 10 9 12 4 9 9 13 4 4 6 10 6 2 9 12 15 15 16 13 14 15 15 16 17 17 16 15 15 14 13 12 11 11 10 10 11 15 16 10 9 14 12 8 7 8 11 15 11 12 12 16 17 15 14 13 12 10 9 9 9 10 12 12 13 12 10 11 11 8 10 11 12 10 12 12 11 11 13 12 11 10 9 8 9 11 10 11 9 11 11 12 11 11
12 14 12 12 10 7 10 7 9 6 12 5 5 4 10 4 3 5 8 9 13 14 11 14 16 16 17 17 16 16 15 15 13 13 12 11 12 11 12 12 12 11 10 12 13 11 10 9 7 10 14 10 12 11 13 15 16 13 10 12 12 15 7 9 11 11 6 4 7 10 11 11 10 12 12 14 14 13 12 12 12 12 11 10 10 10 10 9 10 12 10 11 11 11 10 11 11
19 10 18 16 17 17 11 13 16 16 15 5 7 7 17 14 7 3 6 7 11 12 11 13 15 15 15 15 14 15 14 13 12 14 16 13 11 9 10 11 10 10 11 11 10 9 8 9 10 10 13 9 9 8 6 8 10 20 19 19 16 17 18 14 11 9 12 14 14 12 6 5 9 10 12 12 10 13 12 12 11 11 10 10 9 9 11 10 10 9 9 10 8 9 9 10 8
4 8 14 14 12 14 8 14 10 9 8 5 9 7 4 9 8 9 6 7 10 10 13 15 17 16 15 17 18 16 15 15 14 13 13 14 13 13 11 8 8 7 5 5 8 8 6 7 8 10 10 10 7 6 4 7 15 21 14 16 19 15 9 7 6 9 11 14 14 16 16 16 13 5 8 9 10 11 12 12 10 9 8 9 9 10 10 10 9 10 8 7 8 5 9 7 7
11 9 12 13 12 18 11 3 2 4 10 5 8 10 9 6 7 8 6 10 12 12 14 15 15 16 17 17 17 16 16 16 16 17 16 16 15 14 13 11 11 9 8 7 6 7 8 9 7 9 11 10 8 12 8 11 12 13 17 18 13 6 7 12 15 13 12 10 11 12 12 14 11 11 12 9 9 9 11 10 10 8 8 8 8 8 10 10 9 10 9 8 7 5 7 7 7
16 9 14 6 6 11 18 16 9 8 9 10 4 13 11 9 12 8 9 11 12 13 13 13 13 14 17 15 14 14 14 13 15 16 16 17 18 19 19 18 16 15 13 11 8 6 8 9 9 10 8 7 6 8 5 6 11 13 12 13 11 11 11 11 12 12 13 11 11 11 10 11 11 9 12 11 10 9 9 9 10 9 8 8 9 8 9 9 9 9 9 9 8 8 7 5 5
18 16 11 19 10 8 7 15 8 8 9 8 7 3 6 6 7 10 14 13 12 12 11 12 14 13 12 13 14 15 15 16 15 16 16 16 17 17 18 17 17 17 14 12 11 9 11 10 9 8 11 7 8 11 12 14 9 12 16 15 12 14 14 14 10 11 11 13 14 12 11 10 10 10 10 12 12 10 9 9 10 10 10 11 8 9 8 9 9 9 8 8 6 8 8 7 5
5 8 10 3 15 10 9 17 11 15 8 7 4 4 12 8 9 6 14 14 13 12 11 13 12 12 13 14 15 16 15 14 14 15 15 15 14 14 14 15 16 15 15 14 11 8 9 9 11 12 12 8 7 10 13 12 13 13 14 13 10 12 15 14 12 11 12 14 12 11 12 10 11 10 9 12 13 13 12 10 9 11 10 9 9 9 9 9 8 9 9 8 8 8 8 8 6
5 6 5 7 7 6 15 5 10 13 17 11 14 8 12 8 6 5 11 13 14 13 13 11 10 12 13 13 13 12 14 14 15 15 15 16 15 14 15 13 13 12 12 13 15 15 13 11 12 12 12 11 9 9 8 12 14 16 15 14 14 13 13 14 13 9 10 11 10 10 10 10 11 10 10 12 15 16 13 10 9 9 11 9 9 7 7 8 8 7 7 8 8 8 9 6 7
16 19 15 15 10 8 8 11 5 7 13 14 15 15 9 10 5 5 8 12 14 12 13 12 10 12 12 12 13 13 13 13 14 13 14 14 14 14 14 14 12 13 15 16 15 15 16 15 14 12 14 11 8 9 11 11 11 12 14 15 13 11 13 12 15 11 9 9 10 11 10 11 12 8 10 10 13 11 11 9 9 9 7 9 8 9 7 8 9 8 7 7 9 8 7 7 6
Wind_Speed
1 1 2 2 3 2 1 4 1 2 2 4 2 1 4 1 4 6 7 6 3 2 1 5 5 4 1 5 14 8 5 4 2 5 6 3 4 8 11 14 13 12 12 10 9 9 10 13 15 16 15 16 16 17 16 17 17 17 17 17 19 18 19 19 20 21 21 21 21 21 21 22 23 21 20 19 19 19 18 18 19 20 18 18 18 17 17 16 16 16 15 15 15 15 15 14 14
0 1 0 0 0 1 1 1 3 2 4 2 7 2 5 2 0 6 7 7 2 2 2 10 13 15 16 14 9 4 9 5 2 2 3 4 6 7 12 15 14 14 10 10 9 9 9 11 15 15 16 16 17 16 16 17 16 16 17 17 18 18 18 19 20 20 20 20 20 21 21 22 22 22 20 19 18 17 16 18 19 20 19 17 17 17 16 16 17 16 15 14 14 14 14 14 13
2 1 1 2 3 3 1 2 1 1 1 3 8 7 2 3 4 8 10 9 4 5 3 5 6 4 3 2 7 4 2 2 7 5 2 9 10 9 13 13 13 11 12 9 9 10 9 11 16 17 17 18 18 17 18 17 17 17 17 17 17 18 18 19 19 20 19 19 20 20 20 21 20 22 21 19 18 16 16 16 18 18 19 17 16 16 16 16 14 14 13 13 13 14 13 12 12
0 1 3 2 0 3 1 2 4 6 2 6 5 6 3 3 7 7 8 2 4 3 1 4 6 4 4 11 6 11 5 5 4 8 6 11 6 7 8 8 8 7 7 8 9 9 9 14 17 17 18 19 19 19 19 18 17 17 17 17 17 17 17 17 18 18 19 19 20 19 19 20 20 21 20 19 18 16 16 16 16 17 17 17 17 16 15 15 14 13 13 13 13 13 12 12 12
0 2 2 2 3 1 2 2 2 4 4 4 4 3 4 5 8 7 8 1 3 2 2 3 5 3 3 7 2 2 5 3 6 7 2 2 6 10 9 8 9 9 9 9 8 8 9 18 17 16 16 19 18 19 18 17 16 17 17 16 17 17 17 17 17 18 18 19 18 18 18 19 19 20 20 19 17 16 18 17 16 16 16 15 15 14 14 13 13 14 13 13 13 13 12 12 12
3 2 2 2 0 2 3 1 0 3 6 4 2 6 4 7 5 5 9 12 3 1 2 3 4 4 4 3 1 3 7 8 3 3 3 2 10 10 11 9 9 9 9 8 8 7 8 17 16 15 16 17 18 17 17 18 17 16 16 16 16 17 16 16 16 17 18 18 17 18 17 18 18 20 19 18 19 19 19 17 16 15 15 15 13 12 12 12 12 12 13 13 13 13 12 12 11
1 4 3 3 1 3 4 2 3 4 9 7 5 7 10 10 4 4 9 9 1 6 4 3 10 8 6 1 2 1 7 5 5 1 3 7 9 9 9 8 9 11 8 7 7 7 10 15 14 14 14 16 17 17 18 17 17 16 16 16 16 16 16 16 16 16 17 16 17 17 17 17 18 20 18 17 18 18 18 16 16 15 15 14 12 11 11 11 12 13 13 13 13 12 11 11 11
1 1 1 2 1 1 0 2 4 5 6 8 5 8 11 10 6 1 9 0 4 2 3 3 2 7 2 1 3 3 7 4 5 9 9 8 9 7 7 7 9 10 9 7 6 6 13 13 13 13 14 14 17 17 18 17 17 16 16 15 15 15 16 16 15 14 14 16 16 16 16 17 19 19 17 16 17 17 17 16 16 16 15 13 11 10 10 11 12 13 14 13 13 12 11 11 11
2 3 0 4 1 2 1 3 5 4 7 4 9 9 13 12 9 5 10 3 1 3 4 4 1 6 2 5 2 5 4 7 9 9 10 9 10 9 6 7 10 10 10 8 7 7 8 12 12 13 13 14 15 16 15 16 16 16 16 16 14 14 13 14 16 14 14 14 14 15 16 16 17 16 16 16 16 15 16 17 17 16 15 12 11 10 10 11 12 13 14 13 12 12 12 12 12
1 2 2 2 3 3 1 6 1 5 4 5 5 9 9 7 8 3 7 4 4 3 3 2 1 6 6 7 2 3 2 5 6 9 7 6 6 6 7 7 6 10 10 9 8 8 8 14 13 13 13 13 14 14 13 14 15 15 15 15 13 13 13 14 13 13 14 14 13 14 14 15 15 15 15 16 15 15 15 16 16 16 14 12 11 10 10 11 12 14 13 12 12 12 12 12 12
0 3 2 2 1 1 4 5 4 6 5 5 7 12 14 10 7 7 3 3 3 5 6 9 7 9 6 4 2 2 3 3 4 8 5 4 4 6 6 6 8 8 11 10 8 8 8 9 15 12 13 13 13 13 13 13 14 13 14 13 13 13 13 13 13 13 13 14 13 13 14 14 15 14 15 15 15 14 15 15 16 15 13 11 10 10 10 11 13 13 12 12 12 11 11 11 11
0 1 1 2 2 5 4 2 4 8 9 5 7 9 4 9 4 1 2 5 3 8 3 1 7 5 7 5 3 1 2 0 2 1 5 3 4 4 5 5 8 7 9 10 10 9 9 9 10 14 14 14 13 13 13 14 14 13 13 13 13 12 12 12 12 12 13 12 12 12 13 13 14 13 13 13 14 14 14 15 15 14 12 11 10 9 9 11 12 12 12 12 12 11 11 11 10
1 1 4 3 2 2 2 1 6 4 6 6 5 3 0 2 3 5 2 5 6 5 2 3 15 4 4 3 1 1 2 1 1 1 3 4 4 5 5 5 8 9 9 9 10 9 9 7 8 8 10 14 12 12 12 12 12 11 11 11 11 11 12 11 11 11 11 12 12 12 13 13 13 13 13 12 13 13 13 14 14 13 11 10 9 9 9 10 12 12 12 12 11 10 11 10 9
3 5 5 3 1 2 1 3 2 3 5 7 4 4 2 0 1 2 7 6 2 1 1 12 8 7 5 4 0 4 5 3 3 2 3 6 6 6 6 5 8 9 9 9 9 9 8 7 6 7 8 7 6 10 11 11 11 11 10 10 11 11 11 11 10 10 10 10 10 11 12 13 13 13 12 11 12 12 12 13 12 12 10 9 9 8 9 10 11 11 11 11 10 10 10 10 9
3 1 1 1 0 1 3 2 2 2 7 2 5 2 3 3 2 4 8 8 5 2 7 3 4 3 5 9 4 10 8 7 5 4 5 7 8 6 7 5 7 9 9 8 8 9 8 7 7 7 6 5 5 4 4 7 10 10 11 11 11 11 11 10 10 10 11 11 12 13 12 13 13 13 13 12 11 10 11 12 11 11 9 9 8 8 8 10 10 10 11 10 9 9 10 10 9
3 3 1 1 2 3 4 2 1 1 8 2 6 5 1 2 2 3 2 3 4 2 1 2 1 1 5 12 4 13 10 8 6 6 8 9 8 7 7 7 6 7 8 7 8 7 7 7 6 6 6 5 4 4 4 5 8 10 11 11 11 11 11 10 11 10 11 11 12 12 12 11 11 9 13 10 11 10 9 6 10 9 9 8 7 7 8 9 10 10 10 9 8 8 10 9 9
1 1 1 1 3 2 3 3 1 1 6 5 7 5 1 2 3 3 3 4 11 1 4 4 4 5 12 3 5 13 11 8 7 7 9 7 7 5 5 5 5 5 5 7 6 7 7 7 8 6 7 7 5 4 3 4 6 9 8 9 10 10 9 11 11 11 9 9 10 10 8 5 5 6 7 5 10 5 7 8 10 9 8 7 7 7 8 9 9 10 9 8 8 9 9 8 8
2 2 3 1 4 2 4 4 4 1 1 6 5 2 5 4 4 1 4 9 5 5 6 3 9 9 6 2 12 12 11 11 9 10 7 6 5 5 4 4 5 6 5 6 6 7 7 7 8 7 7 7 5 4 3 3 4 6 4 4 5 7 9 9 7 5 7 4 9 7 5 5 3 4 6 8 4 5 7 9 9 8 7 6 6 6 7 8 8 9 9 8 8 9 8 5 5
4 1 3 6 4 5 3 4 4 1 4 6 7 7 2 1 1 0 5 0 1 5 4 5 8 9 10 9 12 13 12 10 10 10 10 8 6 8 7 6 7 6 6 5 6 7 6 7 7 8 7 6 6 5 4 4 4 4 4 5 4 6 6 5 4 5 3 4 4 4 4 4 4 3 4 6 6 7 6 9 8 8 7 6 6 6 6 7 7 8 8 8 8 9 5 4 5
4 3 3 6 4 4 4 6 8 5 4 5 6 4 5 0 1 0 3 4 1 6 4 2 5 9 10 9 11 11 10 10 9 11 11 10 9 10 9 8 5 4 4 4 6 5 6 6 7 7 7 7 6 5 5 5 5 5 4 4 5 4 4 4 4 3 4 4 4 4 4 4 4 4 8 12 9 4 4 6 8 8 7 6 5 3 5 6 7 8 7 6 4 4 5 5 6
2 3 5 3 5 3 8 6 10 11 2 5 1 3 3 3 1 3 6 6 1 3 5 9 11 12 11 10 11 11 11 10 9 9 10 11 10 6 3 3 4 5 5 4 4 5 6 6 6 6 6 6 7 6 6 5 5 5 5 4 4 4 4 4 4 4 4 5 5 4 3 2 3 3 3 4 4 5 2 2 2 2 1 1 3 2 2 4 4 4 3 3 3 4 6 4 5
2 6 1 2 0 2 7 4 5 5 5 2 1 1 2 1 3 5 7 4 4 7 8 6 12 15 14 13 12 9 11 10 10 11 12 13 11 7 5 4 5 4 5 5 5 6 6 6 5 6 7 7 8 7 7 6 7 5 5 5 5 4 5 4 3 4 4 4 4 5 4 5 3 2 3 3 4 4 3 1 2 2 1 1 2 1 1 2 3 3 2 2 1 2 6 4 3
3 3 4 4 5 6 4 1 4 5 4 4 3 1 0 3 1 4 6 3 4 6 4 8 14 17 14 14 14 12 11 10 12 15 14 12 8 7 7 6 8 8 6 5 5 5 6 7 7 7 7 7 8 6 5 5 5 5 4 5 5 5 4 4 4 3 3 4 3 4 5 4 4 4 3 4 4 3 3 2 2 2 1 1 1 2 1 1 2 2 1 1 0 2 4 4 4
3 5 2 6 4 8 9 6 7 5 3 6 3 1 1 2 6 3 2 4 6 2 8 9 9 10 12 14 12 15 14 14 14 11 9 9 9 9 8 8 5 4 6 6 6 6 6 7 7 7 6 6 6 6 5 5 4 5 5 7 5 5 4 4 4 4 4 4 3 4 4 5 5 5 4 5 4 3 3 2 2 2 1 1 0 1 1 0 1 1 1 0 1 3 3 4 5
3 4 3 5 5 8 9 7 8 7 7 7 5 2 5 3 2 3 1 1 3 6 9 11 11 10 9 10 12 12 12 11 11 9 6 3 3 4 4 5 5 5 7 6 6 6 6 6 6 6 5 6 5 6 6 4 5 5 5 4 4 6 4 4 4 4 4 4 3 3 4 5 4 4 5 5 4 4 3 3 3 2 1 2 1 0 1 1 1 1 0 1 2 2 2 4 6
5 9 5 4 5 6 6 4 7 9 4 2 1 4 5 6 3 3 4 3 4 9 10 11 11 11 11 10 11 13 14 14 12 10 10 5 4 5 4 5 6 7 7 8 8 7 6 6 7 7 5 3 3 4 3 3 3 5 4 4 4 4 3 4 5 5 4 4 4 3 4 5 6 6 5 4 5 5 3 2 3 3 3 2 1 2 1 1 1 0 0 1 2 2 3 3 5
4 4 5 6 9 7 6 7 6 7 5 4 4 4 6 2 6 7 4 2 9 9 10 8 11 12 10 10 10 10 13 14 15 11 7 5 5 6 6 6 6 6 7 7 6 6 7 7 6 5 4 3 4 5 4 4 4 4 3 4 4 4 4 4 4 4 4 4 5 4 4 5 5 4 5 5 5 5 3 3 3 3 2 2 2 3 1 1 1 1 0 0 1 2 3 2 5
2 2 2 5 8 7 6 3 5 1 3 6 7 8 3 3 0 5 4 6 11 13 9 9 7 9 10 11 11 9 9 9 9 9 13 11 9 8 8 8 7 7 8 7 6 6 7 6 6 6 7 7 6 6 6 6 5 6 4 4 5 3 2 5 5 5 4 4 4 4 4 5 4 4 4 5 5 4 4 4 4 4 4 3 4 2 2 1 1 1 1 1 2 3 4 4 4
2 1 4 9 5 3 1 5 5 5 4 5 5 1 2 1 4 6 10 8 9 13 12 11 10 9 8 10 10 9 9 9 9 10 12 11 6 7 8 7 9 8 5 7 7 7 7 7 9 10 8 6 8 8 7 6 7 7 7 4 5 6 5 1 4 4 4 4 3 4 4 4 4 5 4 5 4 4 4 3 3 3 4 4 4 3 2 2 2 2 3 4 4 4 5 5 4
0 1 3 4 4 3 6 1 1 7 3 7 6 4 7 8 8 1 6 10 7 9 9 8 7 8 7 8 9 9 8 9 11 12 10 9 7 8 9 8 8 8 8 6 7 8 6 5 6 6 6 7 6 6 6 6 6 6 5 5 5 7 5 4 3 3 3 3 4 4 3 4 5 4 5 4 4 4 4 5 4 3 4 3 2 2 4 4 3 3 3 4 4 4 4 4 5
2 2 2 2 0 2 3 1 1 6 2 6 3 5 8 8 9 2 7 11 12 11 10 9 8 8 7 8 9 10 10 11 13 11 7 5 3 5 7 8 9 8 8 8 9 9 9 8 7 7 7 5 6 8 9 8 7 8 8 7 6 5 5 5 2 2 1 2 4 5 5 4 4 4 4 5 4 4 4 3 4 5 4 3 1 2 5 4 4 4 5 5 3 4 4 3 4
2 2 4 4 3 6 7 3 4 3 1 1 4 3 9 10 7 8 8 10 13 12 10 10 9 9 9 9 9 9 9 9 7 6 5 4 3 5 8 9 9 9 11 10 8 9 9 8 7 5 6 8 7 8 8 7 6 7 7 8 7 9 7 5 4 5 6 4 3 4 5 5 4 4 4 5 5 5 5 5 5 4 4 2 2 3 4 5 4 3 2 5 6 4 5 5 4
5 2 3 1 0 3 4 1 2 6 2 0 4 6 3 5 3 8 9 12 11 12 12 11 10 11 10 9 8 7 8 9 8 9 7 6 5 6 7 9 10 10 9 10 10 9 8 7 6 6 9 8 6 5 4 4 5 6 6 6 8 6 5 6 7 7 6 6 6 4 6 6 5 5 5 5 6 5 4 5 5 5 4 4 2 3 5 5 5 4 2 2 4 5 5 6 5
3 2 1 2 0 1 1 7 4 2 2 1 1 3 7 9 2 4 4 9 10 10 12 11 11 9 9 7 7 8 8 9 11 12 10 7 7 7 7 8 8 8 7 9 10 11 10 8 8 9 6 6 7 8 7 7 6 6 5 6 6 6 8 7 7 7 7 6 7 7 6 6 6 6 6 6 5 4 4 5 5 5 6 5 3 3 4 3 4 5 4 3 4 6 6 6 7
1 0 2 3 2 0 3 1 3 1 0 3 1 5 10 12 4 5 7 10 13 13 14 12 10 8 8 8 8 9 8 9 12 11 9 8 7 7 7 7 8 8 7 8 8 7 7 7 7 7 7 7 7 8 7 6 5 4 4 5 7 9 7 7 7 7 7 6 7 8 7 6 6 6 6 6 6 5 5 5 5 5 7 7 5 4 4 3 4 3 5 4 4 4 5 5 7
3 2 1 1 3 4 3 4 4 2 5 5 4 7 11 11 11 1 1 5 12 8 2 4 5 6 7 8 8 7 7 8 6 8 7 5 7 8 6 6 7 7 7 7 8 7 7 7 6 5 7 8 7 7 7 7 7 7 7 6 6 7 8 8 7 8 7 7 8 8 8 7 6 6 6 6 6 6 5 6 5 6 7 6 5 4 5 5 5 5 5 7 6 5 4 5 6
2 1 1 2 3 5 3 4 6 3 3 9 6 8 9 10 6 4 3 1 5 4 5 5 6 7 8 8 7 7 9 8 6 7 6 5 6 5 6 7 6 6 7 8 8 8 8 8 7 7 7 8 9 8 8 9 9 8 7 10 10 10 9 8 8 8 7 7 7 7 7 6 6 6 6 6 7 6 6 6 5 6 7 6 5 5 6 6 5 5 6 4 7 6 3 5 6
1 0 1 6 1 5 4 4 3 5 5 6 2 2 7 10 4 3 2 4 8 10 8 8 10 10 6 5 8 8 5 3 4 5 3 1 4 5 6 7 8 10 8 8 9 8 8 8 8 8 7 8 9 11 10 9 9 10 10 10 9 9 8 9 9 7 7 6 6 6 5 5 5 6 6 5 5 6 6 5 5 6 7 7 4 4 5 5 5 5 6 4 1 4 3 5 7
2 2 1 1 5 4 9 4 2 1 4 8 1 4 7 5 4 5 3 2 4 6 14 15 13 10 7 6 6 6 6 7 4 3 3 3 6 7 8 8 8 10 9 8 7 8 8 8 8 9 8 8 8 8 8 8 6 4 4 3 5 2 1 1 2 2 4 6 5 5 5 5 5 5 6 5 5 4 3 4 5 5 6 8 6 5 5 6 6 7 7 7 6 3 4 3 4
3 0 0 5 3 2 5 5 4 5 1 4 4 5 4 5 3 7 4 6 4 3 4 2 5 11 12 8 1 1 2 3 5 7 8 7 8 8 8 8 8 7 6 6 6 8 7 6 5 6 7 5 5 5 5 3 3 4 5 5 4 3 2 3 3 2 3 5 5 5 4 4 5 5 5 5 5 7 7 5 3 4 6 9 7 7 6 7 6 5 5 5 8 7 4 4 3
2 4 3 1 2 3 5 6 5 4 2 2 5 3 3 5 4 4 7 6 10 12 4 4 5 5 4 4 8 7 6 6 6 7 8 8 8 8 8 7 6 5 5 6 8 9 7 8 7 7 5 4 3 1 1 1 4 4 5 5 5 5 4 4 4 3 4 5 5 5 5 4 4 5 5 5 5 7 6 4 3 3 3 3 5 7 7 7 7 6 6 7 7 8 7 3 4
2 5 9 6 4 4 4 4 3 6 3 6 4 3 1 3 4 6 6 9 11 10 11 9 8 5 5 7 6 8 7 5 8 8 9 8 7 6 6 5 4 4 5 8 9 8 7 7 7 7 4 3 0 1 2 2 0 3 5 6 6 4 4 5 6 5 5 6 6 4 5 5 5 4 4 3 4 4 4 4 6 7 5 4 5 6 6 5 5 6 6 7 6 3 8 7 5
2 7 9 8 7 4 0 3 2 2 2 3 2 6 1 4 8 7 5 6 8 10 13 11 10 8 3 4 6 7 9 8 6 6 7 9 7 6 5 5 6 7 3 2 5 6 5 3 4 4 3 4 4 3 2 0 1 2 4 5 7 7 7 5 5 5 6 5 4 5 4 4 4 5 4 4 3 3 3 4 6 5 5 5 5 5 6 7 7 7 5 5 6 5 4 8 8
3 5 7 5 4 5 4 3 3 2 2 4 5 3 3 2 5 4 7 2 8 13 13 13 12 12 10 8 5 3 6 8 9 9 9 9 10 9 9 9 9 5 6 8 7 7 8 7 6 3 3 3 3 3 5 6 5 4 5 5 5 6 7 7 7 5 4 4 5 5 4 4 4 4 5 5 4 4 4 4 4 5 5 7 5 6 6 6 6 4 5 4 4 5 6 7 7
6 6 6 5 8 6 7 4 3 0 1 4 6 2 3 1 5 5 6 5 9 12 11 11 12 11 11 12 10 9 8 4 3 8 7 8 9 10 9 10 7 7 8 9 8 7 8 7 7 7 8 7 7 8 7 7 7 8 7 6 5 3 4 5 5 4 5 5 5 5 5 5 5 4 4 5 5 4 4 5 6 6 6 5 4 4 4 6 7 7 6 5 5 5 5 4 6
8 6 3 3 4 3 4 4 4 1 3 2 2 0 3 1 4 8 5 3 8 8 8 9 10 11 11 10 11 11 9 8 8 6 4 4 6 8 9 7 4 2 2 1 3 6 5 3 4 5 6 9 10 11 11 10 9 8 9 8 8 7 6 5 5 6 5 5 5 5 5 5 5 5 5 4 4 4 4 4 5 6 5 5 5 5 4 5 5 5 6 6 6 6 5 5 7
1 2 3 2 6 3 3 6 4 3 1 4 4 1 4 1 2 3 4 3 3 5 4 7 9 10 11 11 10 9 9 8 6 6 5 4 3 0 3 5 4 5 6 9 8 3 2 2 1 4 7 7 9 11 10 10 8 7 9 9 9 8 7 7 6 6 5 5 5 5 5 5 5 5 5 5 5 6 6 5 5 5 5 5 5 5 6 6 6 6 5 4 5 7 6 5 4
3 2 4 3 1 6 5 3 5 3 2 5 3 2 3 5 1 2 2 3 6 6 7 8 9 10 10 10 10 10 9 8 7 6 5 4 2 2 4 5 6 12 10 8 5 6 6 5 4 5 6 7 7 5 8 9 8 7 6 5 5 5 7 7 8 8 7 7 6 6 4 4 4 5 5 5 5 6 6 6 5 5 5 5 5 5 5 6 6 5 6 6 6 6 4 5 4
3 4 5 6 2 2 2 1 1 3 4 1 2 2 4 2 0 1 4 5 7 9 7 6 7 9 10 11 11 9 9 9 9 7 6 7 6 6 7 7 8 8 5 6 9 7 5 5 5 7 9 4 5 7 5 6 8 7 5 3 2 2 3 4 6 7 7 7 6 4 5 5 4 5 6 6 6 7 6 6 6 7 6 6 6 5 5 6 6 6 6 6 6 7 7 6 6
5 7 6 5 2 1 2 2 1 2 6 3 4 2 3 0 0 1 1 3 4 7 6 6 7 9 10 10 9 8 9 8 8 8 7 6 6 6 7 7 6 5 5 5 6 6 5 6 5 7 9 6 3 4 6 3 2 3 3 4 5 6 2 6 7 6 4 2 4 4 4 4 5 6 7 8 8 8 7 7 7 7 6 6 6 6 5 6 6 7 6 7 7 7 6 7 7
9 4 9 8 7 4 2 3 4 7 7 1 2 1 4 7 3 1 3 3 4 7 6 6 7 9 9 8 8 9 8 7 7 8 8 8 7 6 6 7 6 5 4 2 1 2 3 4 6 7 8 6 3 2 3 3 2 10 8 5 7 10 10 7 5 5 6 8 8 8 4 1 4 5 6 6 6 7 8 7 7 7 6 6 6 5 6 6 6 6 6 6 5 5 5 6 5
1 3 7 7 4 7 2 5 4 3 2 1 4 0 1 2 2 4 2 3 5 5 7 8 9 9 9 10 10 9 9 9 8 8 8 9 9 8 7 5 5 5 3 1 1 2 3 4 4 5 6 7 5 3 2 3 6 6 7 10 10 4 2 2 1 4 6 6 5 6 8 9 8 3 2 4 2 6 7 7 6 6 5 5 5 6 6 6 6 6 5 4 5 3 5 4 4
4 4 4 5 5 10 5 1 0 1 5 0 0 3 2 0 2 3 4 6 6 6 6 7 8 9 10 10 9 9 9 9 9 10 9 10 10 10 8 7 6 5 5 4 3 4 4 5 4 5 6 5 3 4 2 5 6 9 11 5 3 4 4 8 9 8 7 4 4 4 6 8 7 6 7 5 2 4 5 6 6 5 5 5 5 5 6 6 6 6 6 5 5 3 4 4 4
6 2 7 3 4 6 6 5 2 3 3 1 1 5 5 4 3 4 5 7 8 7 6 7 7 8 8 8 8 7 7 7 8 8 9 9 10 11 11 10 10 10 9 7 6 4 5 5 6 7 5 2 3 4 3 4 7 9 8 5 5 5 5 6 7 7 5 5 6 6 5 6 7 6 7 6 4 3 4 5 5 5 5 5 6 5 5 6 6 5 5 5 5 5 4 3 3
10 8 5 6 1 2 2 5 0 1 1 1 3 1 2 2 2 5 9 8 7 6 6 7 7 7 7 8 9 9 9 9 9 10 9 9 10 10 10 11 11 11 9 8 7 6 5 4 4 4 7 5 3 5 6 3 4 6 6 7 7 8 8 8 6 5 4 7 7 5 6 6 6 6 5 6 7 2 6 3 5 6 6 6 5 6 5 6 5 5 5 5 4 5 5 4 4
3 5 4 0 6 4 3 4 4 6 3 2 1 1 3 3 3 4 8 9 8 7 6 5 6 8 8 8 9 9 9 8 8 8 8 9 9 9 9 9 10 10 10 9 8 5 6 6 5 6 7 5 4 6 7 5 6 5 6 5 5 8 10 8 6 5 6 8 6 6 5 5 7 6 5 5 7 5 5 5 4 6 6 5 6 5 5 6 5 5 5 5 4 4 4 5 4
1 2 1 0 1 2 6 1 2 4 5 4 4 1 3 3 3 2 7 8 9 8 7 4 6 7 8 8 8 7 8 8 9 9 9 9 9 9 8 8 7 7 7 8 9 9 8 7 8 8 6 5 4 5 5 5 4 8 9 9 8 8 8 7 7 5 5 4 5 5 6 6 6 5 6 6 8 9 7 5 5 5 6 5 5 5 4 5 5 5 5 5 4 4 5 3 4
8 8 6 8 5 4 4 4 1 3 3 3 5 4 2 5 1 2 4 7 8 8 8 5 6 8 8 7 8 8 7 8 8 8 8 8 9 9 8 6 6 7 9 10 9 9 10 9 9 7 9 6 5 5 6 7 6 7 9 9 8 6 6 6 6 6 5 6 6 6 6 6 7 4 5 6 6 7 7 5 5 5 4 5 4 5 4 4 5 5 4 4 5 5 4 4 4
Wind_Direction
232 297 210 189 72 94 64 360 169 306 65 259 326 187 262 226 252 329 285 329 343 23 21 43 38 13 116 140 127 115 32 144 205 134 212 214 154 162 160 153 161 157 155 152 149 146 149 146 142 139 136 131 127 126 126 125 125 124 123 123 122 120 119 118 118 119 118 117 117 117 117 117 117 116 115 115 111 105 103 104 103 103 105 106 106 106 106 104 102 93 90 86 85 82 77 77 78
309 345 151 196 92 77 269 124 100 352 40 3 245 123 248 260 54 223 253 258 227 123 173 80 79 87 102 124 136 95 35 19 284 164 59 110 131 165 168 159 160 160 154 148 143 142 144 146 143 138 135 129 130 128 128 129 130 127 126 125 124 122 121 121 122 121 121 120 120 119 120 120 120 119 119 118 115 113 111 103 102 104 105 106 106 108 105 105 103 94 94 90 86 83 81 80 75
262 119 29 28 22 83 93 41 269 70 103 249 270 211 307 318 230 255 237 235 202 176 165 96 104 83 71 133 42 48 234 333 108 115 117 151 139 206 176 161 160 153 146 141 139 142 145 148 146 142 138 137 136 134 136 136 134 132 130 127 125 124 124 125 124 124 124 123 121 121 122 123 123 121 119 119 116 108 103 107 106 105 106 107 108 107 104 102 97 94 93 90 89 86 82 79 76
60 44 137 65 297 23 67 30 88 130 139 217 303 261 210 217 257 246 263 229 191 183 55 26 46 294 107 65 98 75 100 160 245 157 146 183 197 136 150 146 134 126 131 140 146 145 147 150 147 145 143 142 139 140 140 140 137 134 132 130 127 128 127 127 126 126 124 123 122 122 124 124 123 122 122 122 116 112 111 106 106 105 105 107 109 108 107 107 105 100 96 94 91 87 79 72 67
40 348 91 97 109 338 113 185 145 109 208 191 205 269 231 226 252 286 284 146 273 236 98 134 85 345 60 105 138 164 180 93 209 236 320 135 75 133 137 135 136 143 145 142 141 141 148 148 147 146 144 144 141 141 141 139 136 135 134 132 130 130 130 129 128 126 124 123 123 125 125 125 124 123 122 122 118 105 104 103 104 104 102 102 103 101 100 102 98 98 96 92 86 81 76 71 65
50 44 358 93 170 187 51 49 241 200 230 164 222 264 238 232 256 294 298 310 220 184 109 90 148 169 45 23 8 169 160 150 204 245 180 137 125 131 138 142 138 141 140 137 138 139 148 146 147 145 145 144 143 143 141 139 138 134 134 132 133 132 132 130 128 125 123 126 126 126 126 125 125 124 123 124 116 110 110 112 112 113 111 108 104 100 100 97 93 89 87 86 85 82 78 75 71
233 46 352 23 4 61 169 152 228 212 262 173 239 264 267 285 257 341 305 335 102 73 345 128 119 105 85 220 70 13 296 253 114 228 69 110 107 124 136 136 135 141 137 137 134 133 145 143 144 143 143 143 146 144 143 138 135 137 136 136 136 136 135 133 129 128 127 128 128 128 128 127 125 123 124 124 120 116 116 119 119 116 113 111 105 102 100 97 95 92 91 89 89 89 87 83 75
98 114 256 111 217 53 206 213 244 163 272 181 238 259 274 272 291 290 290 45 282 103 84 118 50 94 257 312 161 283 329 2 28 78 94 104 114 117 129 129 133 140 137 130 127 125 146 137 140 142 144 146 147 145 142 137 137 139 138 139 138 138 136 133 130 130 131 130 132 130 129 127 127 126 125 125 123 121 124 124 120 116 110 105 106 104 100 99 98 97 96 97 95 94 92 84 77
348 84 319 83 173 33 45 236 252 230 275 280 271 257 274 274 283 287 289 279 313 78 130 156 134 82 239 56 73 295 323 10 62 79 95 109 129 139 131 139 143 141 139 136 129 132 128 139 140 144 145 146 148 146 143 138 140 140 141 141 140 138 135 133 133 132 133 132 134 133 131 130 129 127 126 127 126 126 126 125 120 114 109 110 110 108 105 103 100 99 99 99 99 96 89 83 76
22 96 240 155 125 219 356 287 217 244 224 235 246 268 261 273 281 246 255 321 174 96 4 34 89 122 128 116 138 291 314 21 86 75 85 115 117 120 132 131 131 138 138 136 131 127 136 143 146 145 146 148 149 147 140 139 142 143 143 143 140 137 137 136 135 135 135 134 134 135 133 132 130 128 128 129 129 128 126 123 118 113 112 114 113 111 110 106 101 99 98 96 91 87 83 79 74
236 5 155 86 49 171 223 273 267 301 269 293 281 250 252 259 250 273 240 187 217 125 118 98 53 118 120 117 218 333 59 63 79 123 123 124 106 117 120 125 130 139 138 132 127 126 137 142 147 149 150 150 150 146 141 143 144 146 144 142 140 142 140 139 139 135 135 135 134 134 132 132 133 130 131 131 131 130 127 124 116 115 117 118 117 116 114 109 102 99 98 94 89 85 79 76 74
105 153 31 117 175 165 231 208 271 271 283 295 281 278 240 220 178 232 195 136 128 135 153 188 158 140 84 132 246 201 39 112 48 78 126 111 85 93 114 120 125 127 131 129 129 134 142 151 152 159 157 154 150 146 145 148 149 149 145 142 142 143 142 140 136 134 135 133 135 133 133 134 133 132 131 131 132 131 128 121 114 117 120 122 120 118 114 108 104 102 100 96 90 85 78 74 71
147 102 89 90 225 132 225 274 258 284 310 281 235 275 107 140 163 190 139 118 134 158 221 179 144 150 109 182 321 3 259 185 101 94 129 105 88 100 95 118 129 132 133 134 139 147 149 147 151 154 156 151 145 143 147 148 146 144 141 139 140 141 141 137 133 131 131 134 134 135 134 134 133 132 130 133 135 133 129 121 121 120 124 123 121 118 114 109 107 104 101 95 91 86 81 76 67
130 180 123 213 84 176 161 245 302 328 288 255 256 268 297 174 258 164 112 73 20 243 303 130 126 116 76 80 275 248 219 127 151 140 119 100 98 97 109 127 137 135 136 139 143 142 141 141 143 145 150 137 142 146 147 149 145 138 136 137 138 140 138 136 132 129 129 131 133 135 135 134 133 132 131 133 138 129 128 125 122 124 125 124 121 116 112 108 104 100 94 92 89 86 84 76 65
208 167 88 131 289 68 246 165 210 166 272 270 269 337 354 18 107 60 97 101 26 84 105 32 165 88 201 169 200 221 188 153 144 146 116 99 95 97 111 128 138 135 137 144 144 145 144 141 134 137 133 124 126 121 138 146 139 134 138 139 140 139 136 133 132 131 136 139 141 139 137 136 133 132 135 132 129 127 133 128 127 126 127 126 121 113 108 105 101 95 89 85 85 86 79 73 63
193 92 96 154 247 170 267 186 255 271 264 281 268 326 9 58 23 89 298 161 139 63 20 162 251 225 173 180 222 189 130 138 141 134 118 102 95 95 119 131 133 137 141 144 146 143 139 133 128 129 123 124 122 130 138 139 142 142 144 143 139 136 133 133 137 137 145 149 150 146 145 142 132 135 139 137 134 138 134 130 132 130 131 127 122 114 104 99 96 92 89 86 82 78 74 70 71
103 83 302 78 267 162 257 185 142 257 256 270 301 6 88 11 319 80 4 54 117 51 77 15 309 321 167 207 113 117 118 123 132 130 115 110 113 113 114 131 135 132 143 149 145 138 134 129 128 128 131 129 125 127 129 133 145 141 137 129 129 125 129 136 140 142 145 156 156 146 129 127 137 139 132 132 143 135 135 135 133 133 132 130 123 115 104 96 96 96 93 89 82 74 65 60 64
94 185 130 247 199 179 220 200 199 146 276 293 336 339 68 37 353 65 34 35 64 61 54 5 32 41 57 60 102 111 117 134 142 134 127 113 119 128 138 146 150 157 148 150 140 133 131 130 133 132 137 134 126 116 110 121 133 130 114 123 125 136 139 140 141 137 141 130 143 142 127 131 119 126 135 140 116 145 141 137 137 135 137 131 123 111 104 100 97 96 93 88 82 74 67 58 58
179 165 118 216 192 240 183 224 258 350 272 295 295 289 60 123 142 329 86 309 4 52 26 38 70 61 68 85 109 113 133 141 145 142 136 131 143 158 169 167 165 156 152 140 140 140 137 132 133 135 136 130 124 115 119 118 116 107 111 111 126 135 142 133 127 137 113 122 100 125 131 124 127 127 122 127 127 143 147 145 144 145 142 139 125 115 109 105 99 92 87 82 77 80 68 57 69
230 126 218 234 207 239 254 256 281 257 255 290 318 309 356 183 140 128 121 141 18 141 138 13 85 116 122 118 114 127 139 144 145 144 147 154 169 176 180 174 148 136 129 142 139 132 128 132 132 131 132 132 126 127 124 128 129 119 117 114 115 132 133 134 132 126 121 110 117 113 125 132 131 140 148 144 141 130 150 153 153 152 151 141 131 108 108 106 93 86 82 78 73 81 78 60 72
284 134 208 228 207 220 264 240 252 275 318 287 205 295 13 10 95 108 139 82 325 279 236 164 174 154 145 142 135 141 145 144 143 148 157 174 182 169 104 87 141 149 138 114 114 126 122 125 125 121 124 129 133 145 151 148 132 126 121 124 131 134 139 142 135 121 136 132 131 121 106 103 98 108 109 117 111 121 122 140 132 92 76 104 96 62 64 78 72 77 65 63 64 88 86 70 84
103 212 219 197 308 224 253 237 297 280 284 308 261 24 270 297 76 113 144 138 225 210 219 236 154 153 147 149 151 141 146 144 152 163 178 183 176 152 146 117 96 98 118 133 134 130 122 128 131 132 134 146 155 163 158 150 146 144 136 136 138 138 148 143 125 134 146 139 136 131 118 116 106 90 99 109 115 123 135 106 94 100 98 114 85 88 58 80 79 72 80 70 24 77 96 102 107
251 299 232 203 222 239 270 160 250 248 287 284 284 227 7 13 132 192 143 172 238 214 195 154 161 164 158 144 143 147 149 158 172 182 183 180 161 158 159 154 152 155 146 133 129 130 135 140 145 150 156 160 164 160 148 150 143 138 132 144 148 151 139 133 127 128 139 149 148 140 134 134 134 118 119 124 134 146 152 136 139 155 170 167 140 132 129 80 91 89 77 49 346 49 70 111 127
174 246 268 280 201 232 257 259 274 274 218 251 234 89 231 19 321 178 138 251 255 222 135 139 144 139 142 144 154 155 162 170 183 190 191 184 167 162 163 162 154 109 118 134 139 146 147 150 153 158 159 162 161 154 148 144 134 142 151 157 146 149 132 132 138 149 170 153 155 148 137 143 145 152 149 153 161 159 174 149 143 152 188 235 215 137 140 41 70 61 59 10 351 50 59 78 115
188 257 262 260 266 245 256 249 250 265 269 259 308 199 249 194 258 332 295 249 138 110 112 121 134 133 134 141 152 155 162 175 184 192 200 161 133 129 114 93 109 124 125 138 143 144 154 153 157 158 161 169 170 159 158 145 140 138 147 144 133 157 122 142 150 148 162 158 158 149 148 149 151 155 158 163 159 174 167 150 153 165 176 233 234 233 141 139 76 92 54 327 29 59 77 90 110
198 224 238 267 263 265 256 280 251 245 254 225 277 256 283 256 347 240 233 171 119 113 112 127 133 141 150 158 158 164 172 178 179 187 199 182 143 131 119 114 127 144 155 149 153 160 154 155 160 162 162 147 96 97 83 85 115 132 135 118 113 117 125 149 154 168 169 160 164 154 163 161 178 163 163 160 162 176 173 150 155 171 187 205 214 236 216 145 160 85 96 24 48 46 59 100 114
174 214 232 249 254 256 255 219 241 223 228 160 199 243 258 272 131 259 7 137 118 114 124 139 147 153 157 160 164 176 176 180 182 185 187 189 171 161 153 127 139 145 146 155 157 154 153 158 161 141 118 110 117 134 133 122 124 128 84 93 114 125 151 156 163 165 165 171 170 161 172 176 174 168 163 163 170 169 164 163 179 161 195 216 217 229 207 171 153 142 54 103 111 76 68 88 110
250 235 293 264 259 260 258 287 265 118 260 189 188 225 261 320 115 227 178 162 140 133 145 154 161 159 162 167 168 178 185 186 182 182 193 193 193 174 161 152 145 141 155 160 153 152 158 154 123 126 145 147 155 159 151 140 118 90 99 143 127 94 212 171 172 171 174 173 162 165 173 174 172 179 169 165 168 160 166 171 173 173 195 208 205 212 215 149 115 124 129 126 82 100 83 70 84
267 30 324 290 343 328 275 203 226 163 251 162 156 42 268 207 216 228 173 154 150 144 162 167 172 162 161 167 167 176 186 188 190 197 203 202 173 152 147 161 147 139 154 154 155 156 157 149 157 174 159 149 160 164 151 131 128 144 142 145 114 149 259 219 174 179 165 173 160 165 184 169 174 177 180 170 160 159 159 157 172 200 206 200 203 196 157 131 119 98 73 80 95 93 92 82 83
83 102 169 326 350 334 281 258 220 163 234 157 147 271 262 247 248 291 193 151 148 140 159 175 171 167 166 171 172 171 182 192 202 206 203 203 182 143 145 161 152 142 148 159 154 156 155 167 178 161 157 164 158 134 126 130 135 127 127 129 127 170 202 193 198 168 171 167 161 175 200 172 169 178 166 163 151 158 167 168 176 205 225 199 212 198 159 160 135 123 133 114 109 95 94 97 97
202 243 107 221 28 272 286 240 158 161 191 175 126 225 280 260 246 189 192 155 151 167 177 180 175 173 173 174 179 178 185 200 203 208 210 213 165 117 139 149 150 145 147 160 167 161 164 176 175 172 168 163 146 142 148 147 145 141 150 158 149 177 203 208 148 85 136 216 189 191 188 176 163 165 167 162 164 170 170 170 185 202 204 182 199 187 165 138 132 142 141 111 98 91 86 78 94
12 28 290 329 145 274 294 288 168 174 310 211 113 259 243 278 290 158 183 174 161 169 186 183 177 181 177 179 184 180 182 201 223 233 224 210 161 143 150 157 156 157 161 163 158 162 171 179 180 163 170 177 163 155 158 139 137 149 157 158 158 184 192 168 121 171 189 194 225 207 185 178 163 164 159 159 162 178 176 184 188 188 177 89 15 174 141 133 130 144 151 136 112 94 105 89 88
355 100 272 283 159 257 344 346 286 213 149 320 165 224 327 303 354 171 170 173 172 175 186 188 184 184 176 182 185 173 163 194 215 223 213 195 182 160 164 158 167 165 158 156 160 167 174 178 176 185 190 177 152 121 130 132 143 149 162 153 158 186 184 178 189 192 185 186 172 209 201 181 169 168 164 163 160 171 176 178 182 181 128 113 183 157 127 130 149 151 122 98 114 130 114 111 102
318 10 192 212 149 310 271 306 351 359 152 206 252 219 247 241 113 60 156 181 183 186 193 190 185 182 177 171 182 183 175 180 206 219 207 182 177 169 166 169 158 156 160 160 165 168 171 174 179 191 180 135 146 154 160 161 164 155 155 165 165 174 191 191 190 187 189 186 177 193 194 184 175 172 167 162 160 176 179 180 181 157 115 130 172 158 119 130 146 150 129 85 123 126 129 128 129
193 318 17 333 338 166 230 50 270 52 28 210 213 229 257 263 247 141 186 196 192 194 195 188 181 175 171 175 185 191 180 181 206 219 209 173 169 172 165 155 146 155 162 162 159 157 158 166 162 170 148 138 145 158 159 158 144 138 155 164 179 190 195 199 187 191 193 184 186 186 186 184 180 173 169 165 163 177 180 184 174 144 126 152 161 158 131 163 155 146 135 108 74 95 127 136 132
173 151 158 177 338 309 324 258 263 262 282 275 173 226 254 262 271 264 189 244 207 208 167 156 175 181 180 186 186 185 185 197 208 222 226 174 170 163 161 149 152 158 161 159 156 154 157 153 153 145 154 154 150 160 161 163 159 172 162 170 190 206 200 198 195 192 186 189 190 184 185 182 177 170 170 170 169 176 182 185 172 143 136 147 148 152 154 168 166 151 135 122 111 97 93 125 123
137 93 64 285 285 293 277 263 265 291 304 257 233 218 247 261 270 277 321 71 160 146 167 173 189 196 200 195 178 182 195 195 201 211 222 187 150 147 140 141 148 155 162 161 156 157 158 158 156 156 165 171 167 167 174 171 172 167 171 182 194 201 196 190 193 191 187 191 186 183 182 180 172 168 171 167 173 178 187 186 166 148 134 138 162 180 169 168 176 154 131 126 133 129 124 124 116
167 191 283 292 237 273 268 268 347 307 177 289 240 186 241 254 277 305 6 140 178 167 174 193 205 211 214 179 183 189 184 189 149 199 220 78 91 118 134 148 158 160 172 163 161 154 157 159 164 163 177 187 186 184 180 181 178 181 180 188 191 194 187 190 196 192 186 182 179 178 179 174 172 171 168 170 172 177 180 194 174 159 140 136 188 201 171 164 161 144 136 110 71 127 121 143 147
74 187 220 323 289 241 277 292 294 274 152 255 283 175 238 256 311 335 34 293 277 208 175 190 193 209 216 209 197 157 163 185 143 84 84 109 121 139 156 168 178 178 162 158 147 155 165 172 173 172 189 193 200 189 181 187 181 164 168 187 195 176 189 211 196 158 161 165 169 172 173 171 171 169 168 172 161 149 205 199 186 156 133 124 184 198 171 163 174 161 158 148 127 69 94 141 160
152 92 88 224 239 13 305 294 317 338 165 258 178 172 273 340 10 38 356 328 298 288 290 256 208 202 205 216 195 88 106 91 99 149 151 150 157 156 166 173 177 168 142 139 149 173 176 177 180 188 199 210 213 200 193 168 113 98 84 104 84 80 108 98 92 106 128 147 162 165 166 172 172 170 170 172 158 160 191 207 182 153 141 147 178 176 169 166 171 163 155 154 140 128 138 174 174
272 180 176 169 235 226 177 266 330 313 348 75 73 41 338 9 15 7 347 352 24 360 345 341 341 343 352 39 71 90 102 122 140 141 146 153 161 165 168 174 166 157 142 155 177 186 179 181 187 191 191 215 247 265 19 41 105 81 90 93 100 95 93 105 125 134 162 171 163 165 168 167 172 170 171 172 167 174 185 175 97 62 76 133 195 175 167 174 176 168 163 152 164 150 151 146 185
313 228 188 197 216 243 274 319 356 17 336 351 108 49 315 321 34 42 336 8 21 3 29 10 340 337 15 55 88 83 86 133 147 154 153 156 151 149 162 159 154 150 166 191 198 186 176 179 183 175 150 157 175 356 25 358 22 149 140 147 155 150 148 153 163 165 158 181 184 160 149 169 169 165 169 171 164 169 169 141 144 182 162 169 219 178 159 148 163 167 182 166 159 182 154 149 166
138 265 171 189 211 219 286 282 69 349 94 351 57 130 259 329 15 355 351 0 17 16 29 19 13 359 25 99 110 120 126 121 123 129 138 143 145 138 132 154 185 181 163 172 200 185 184 180 189 182 143 129 126 144 129 106 308 224 203 186 175 177 176 191 180 181 177 169 144 164 159 158 166 163 158 183 174 162 153 157 170 162 167 160 228 165 164 168 173 179 169 165 174 151 151 159 171
236 238 134 155 159 191 195 153 118 204 250 302 34 109 142 341 323 349 345 337 39 40 33 27 22 27 36 43 43 83 122 134 139 146 149 149 151 153 153 182 194 152 156 181 191 177 188 179 171 149 107 109 126 137 159 167 197 221 221 209 193 184 186 175 170 170 160 150 158 162 146 160 162 168 169 177 172 167 170 163 141 168 186 182 191 172 172 168 163 169 181 172 150 166 173 169 169
213 249 152 172 188 175 169 118 137 233 105 276 323 314 76 294 275 330 21 22 22 41 37 26 27 27 34 44 47 43 37 31 106 134 138 146 151 157 170 192 176 153 175 186 183 185 194 182 171 163 158 158 168 162 174 186 193 195 206 197 194 180 148 150 144 146 165 165 161 159 161 160 157 170 184 177 174 171 175 172 163 178 183 187 176 159 164 166 169 173 170 161 173 187 193 185 163
265 239 100 85 83 89 138 108 108 348 68 282 255 325 126 277 289 348 349 60 25 29 36 30 31 37 39 39 43 45 43 48 42 47 63 107 151 165 190 192 117 109 25 47 154 190 204 196 180 172 185 184 179 179 174 184 191 194 199 200 189 169 152 148 153 161 171 175 177 174 173 164 165 168 182 175 163 165 184 183 176 180 187 180 176 168 155 162 167 178 180 177 170 185 192 179 185
138 147 142 36 46 48 36 66 102 73 82 255 235 259 128 229 284 11 9 332 310 347 23 39 39 39 37 37 38 42 49 44 48 56 53 43 16 14 223 219 108 45 18 18 8 337 290 270 211 204 221 230 218 187 172 175 185 196 208 202 192 168 153 151 158 171 178 180 187 184 182 180 171 174 169 173 175 174 185 188 186 187 187 181 174 171 167 175 177 173 183 179 174 182 185 187 177
141 156 151 130 312 9 32 341 40 104 282 255 266 127 109 173 300 339 340 16 39 38 38 35 39 39 36 34 34 29 29 31 35 35 37 37 28 343 307 314 37 32 19 11 0 343 338 324 322 280 261 264 300 270 177 169 176 199 214 212 197 166 149 156 169 181 189 195 194 190 185 179 178 167 168 168 182 183 181 192 189 184 184 184 187 186 172 179 181 173 176 177 183 188 182 169 164
113 86 71 132 235 55 248 8 178 162 175 255 198 132 40 7 204 319 337 345 21 32 33 36 54 59 52 47 41 36 32 30 27 24 23 19 16 5 347 21 38 43 23 15 2 347 330 305 294 292 281 290 302 300 265 178 169 188 196 196 170 121 115 140 177 183 192 199 194 187 191 201 168 169 180 181 194 184 183 182 186 186 189 191 190 185 179 169 170 173 176 175 173 175 180 174 169
150 156 138 100 127 65 184 280 230 337 292 255 217 37 93 355 312 80 16 28 37 54 42 46 52 63 67 64 60 52 44 33 25 28 26 17 15 8 359 6 43 86 69 29 10 353 336 323 292 271 276 292 302 311 314 313 218 134 52 37 65 69 144 208 197 170 156 149 147 197 231 209 182 192 183 195 191 179 184 187 183 187 186 180 183 185 171 170 169 171 170 169 177 180 169 175 177
192 148 146 171 140 157 194 193 167 192 194 250 283 134 214 149 233 59 39 33 16 62 66 58 61 64 66 64 65 64 60 46 29 22 21 21 19 11 8 10 7 20 55 93 87 294 314 339 321 299 287 292 298 289 316 291 65 73 75 115 148 195 198 195 163 147 171 188 178 156 166 227 242 225 207 203 172 180 182 179 182 179 178 172 171 173 169 169 172 163 172 173 164 159 168 164 161
314 156 71 96 206 134 157 202 148 178 156 45 5 93 334 145 117 84 83 101 82 73 71 68 59 52 51 52 47 45 49 49 41 37 28 22 12 8 16 20 6 4 8 346 6 323 333 312 304 316 329 336 322 309 259 61 73 108 191 195 195 177 99 57 148 191 191 189 183 181 169 175 192 170 56 7 282 183 179 178 177 173 166 161 164 167 165 164 164 159 153 153 155 150 148 153 155
224 96 159 207 173 114 83 53 115 134 66 143 202 110 72 124 79 114 128 109 96 81 72 58 54 50 48 48 45 43 41 37 33 32 28 24 25 24 14 4 2 5 0 351 346 330 322 315 314 311 313 338 4 26 30 143 166 185 217 221 140 131 144 183 201 203 195 177 158 182 177 180 166 156 160 149 219 273 193 172 170 159 154 158 159 166 163 160 160 155 153 153 158 150 144 156 143
84 132 220 97 90 108 130 191 335 59 149 220 85 154 170 169 177 163 125 119 110 112 82 68 56 53 54 50 45 35 31 32 33 32 29 27 27 23 17 15 10 13 9 0 353 330 318 321 312 302 299 315 324 272 234 186 195 203 221 206 175 165 188 212 211 202 186 162 179 177 171 167 164 159 150 146 131 255 253 168 162 155 157 163 163 162 160 159 154 155 159 163 162 148 140 125 145
155 194 172 117 219 226 317 95 130 120 182 198 350 293 167 161 168 163 156 137 124 101 70 63 56 52 49 41 32 25 24 22 16 15 13 16 18 17 15 14 10 12 5 352 350 347 344 345 336 315 295 281 242 255 259 188 188 230 222 220 186 157 190 216 209 195 172 187 181 177 171 163 140 138 144 139 126 127 272 207 160 156 163 166 163 161 157 155 154 151 160 154 151 148 146 154 155
47 98 105 101 105 149 122 204 174 119 210 83 325 71 207 224 186 183 146 133 118 106 83 69 59 46 39 32 26 21 18 13 11 8 6 4 6 12 13 12 10 2 359 355 351 343 343 340 340 352 341 312 277 237 249 232 205 221 243 235 205 171 184 197 193 182 193 196 182 167 157 144 137 127 138 141 125 123 234 217 163 160 162 160 162 163 161 154 150 154 155 150 159 149 153 160 163
127 66 347 276 25 213 105 37 111 168 170 171 148 291 273 259 230 216 154 135 134 132 115 95 69 54 45 40 30 19 15 11 8 7 2 358 356 359 5 4 7 2 2 1 359 353 348 344 350 341 331 321 302 299 281 261 219 232 228 220 212 192 184 183 186 192 188 193 172 170 160 136 118 129 138 154 154 149 218 192 161 163 161 164 160 162 160 150 149 145 152 155 155 160 162 164 152
169 165 187 171 117 141 155 247 18 84 111 188 128 226 275 269 231 146 124 114 113 110 112 94 71 59 49 35 31 23 15 5 5 1 4 359 354 349 355 5 12 13 8 1 354 349 351 349 343 337 321 303 284 263 255 254 248 226 218 221 212 188 183 171 168 212 199 184 170 174 149 131 132 137 148 162 158 147 202 167 159 158 161 161 162 159 158 155 149 147 155 155 160 160 159 158 160